Location: Unspecified
(0.0000°N, 0.0000°E)
Time: 04:07:25
(UTC+00:00)

Hubble Space Telescope - Pass Details

Date: 16 October 2017
Orbit: 537 x 541 km, 28.5° (Epoch: 22 October)

Event Time Altitude Azimuth Distance (km) Brightness Sun altitude
Exits shadow 05:01:46 11° 312° (NW) 1,748 2.9 -10.8°
Maximum altitude 05:05:43 55° 30° (NNE) 644 1.3 -9.8°
Drops below altitude 10° 05:09:47 10° 109° (ESE) 1,789 5.0 -8.8°
Sets 05:12:05 0° 113° (ESE) 2,682 6.2 -8.3°
